Regional Weather Roundup
Issued by NWS

Home | Current Version | Previous Version | Text Only | Print | Product List | Glossary On
Versions: 1 2 3 4 5 6 7 8 9 10 11 12 13 14 15 16 17 18 19 20 21 22 23 24 25 26 27 28 29 30 31 32 33 34 35 36 37 38 39 40 41 42 43 44 45 46 47 48 49 50
979
ASUS44 KJAN 230210
RWRMS

MISSISSIPPI HOURLY WEATHER ROUNDUP
NATIONAL WEATHER SERVICE JACKSON MS
900 PM CDT FRI AUG 22 2014

NOTE: "FAIR: INDICATES FEW OR NO CLOUDS BELOW 12,000 FEET WITH NO
SIGNIFICANT WEATHER AND/OR OBSTRUCTIONS TO VISIBILITY.

MSZ001>002-007>008-010>013-018>021-025>028-034>036-230300-
NORTHWEST MISSISSIPPI

CITY           SKY/WX    TMP DP  RH WIND       PRES   REMARKS
CLARKSDALE     FAIR      79  77  94 CALM      30.01R
CLEVELAND      FAIR      80  76  85 S5        29.99R
GREENWOOD      CLEAR     79  75  87 CALM      30.00R
GREENVILLE     CLEAR     76  73  91 CALM      29.99R
GRENADA        FAIR      77  72  83 CALM      30.00S
OLIVE BRANCH   CLEAR     81  79  94 S5        30.00R
OXFORD         FAIR      81  73  78 CALM      30.03R
TUNICA           N/A     82  73  74 S3        30.00R
$$

MSZ003>006-009-014>017-022>024-029>033-037>039-230300-
NORTHEAST MISSISSIPPI

CITY           SKY/WX    TMP DP  RH WIND       PRES   REMARKS
BELMONT        FAIR      79  75  87 SW3       30.02R
COLUMBUS AFB   CLEAR     79  74  83 W5        30.00S
CORINTH        FAIR      82  72  69 SW7       29.99S
GOLDN TRIANGLE CLEAR     84  70  61 CALM      30.02R
STARKVILLE     FAIR      79  70  73 CALM      30.01S
TUPELO         CLEAR     85  73  67 CALM      30.00S HX  91
$$

MSZ040-058-230300-
CENTRAL MISSISSIPPI

CITY           SKY/WX    TMP DP  RH WIND       PRES   REMARKS
JACKSON INTL   CLEAR     80  74  81 CALM      30.03R
JACKSON HAWKNS CLEAR     83  72  69 CALM      30.03S
MERIDIAN KEY   CLEAR     80  72  76 S3        30.02S
MERIDIAN NAS   CLEAR     83  74  74 W3        30.02R
RAYMOND        FAIR      77  72  83 CALM      30.03S
VICKSBURG      CLEAR     80  76  87 S3        30.02R
$$

MSZ059>079-230300-
SOUTH MISSISSIPPI

CITY           SKY/WX    TMP DP  RH WIND       PRES   REMARKS
BROOKHAVEN     FAIR      79  79 100 CALM      30.05S
COLUMBIA       FAIR      79  77  94 MISG      30.01R
HATTIESBURG    CLEAR     84  75  74 CALM      30.02R HX  92
MCCOMB         CLEAR     82  73  74 NW5       30.03S
NATCHEZ        CLEAR     81  75  83 CALM      30.03S
PINE BELT      CLEAR     81  73  78 CALM      30.04S
$$

MSZ080>082-230300-
COASTAL MISSISSIPPI

CITY           SKY/WX    TMP DP  RH WIND       PRES   REMARKS
BILOXI         CLEAR     85  75  72 SW7       30.01S HX  93
PASCAGOULA     CLEAR     80  76  87 CALM      30.01R
GULFPORT       CLEAR     85  75  72 CALM      30.01R HX  93
$$



USA.gov is the U.S. government's official web portal to all federal, state and local government web resources and services.